Weather History for KCQM - March, 2013

Change the Weather History Date:

Thursday, March 28, 2013

  Actual Average Record
Temperature  
Mean Temperature 25 °F -  
Max Temperature 44 °F 39 °F 60 °F (1998)
Min Temperature 6 °F 19 °F 0 °F (2008)
Degree Days  
Heating Degree Days 40    
Moisture  
Dew Point 13 °F    
Average Humidity 61    
Maximum Humidity 93    
Minimum Humidity 27    
Precipitation  
Precipitation 0.00 in - - ()
Sea Level Pressure  
Sea Level Pressure 30.27 in    
Wind  
Wind Speed 0 mph (WNW)    
Max Wind Speed 8 mph    
Max Gust Speed -    
Visibility 10 miles    
Events      
Averages and records for this station are not official NWS values.
T = Trace of Precipitation, MM = Missing Value Source: NWS Daily Summary

Daily Weather History Graph

Daily Weather History Graph

Search for Another Location

Airport or City:

Trip Planner

Search our weather history database for the weather conditions in past years. The results will help you decide how hot, cold, wet, or windy it might be!

Date:

Astronomy

Mar. 28, 2013 Rise Set
Actual Time 6:56 AM CDT 7:35 PM CDT
Civil Twilight 6:25 AM CDT 8:06 PM CDT
Nautical Twilight 5:48 AM CDT 8:43 PM CDT
Astronomical Twilight 5:10 AM CDT 9:22 PM CDT
Moon 9:39 PM CDT (3/28) 7:16 AM CDT (3/28)
Length of Visible Light 13h 40m
Length of Day
12h 38m
Full, 98% of the Moon is Illuminated
Mar 28
Full
Apr 2
Last Quarter
Apr 10
New
Apr 18
First Quarter
Apr 25
Full

Hourly Weather History & Observations

Time (CDT) Temp. Windchill Dew Point Humidity Pressure Visibility Wind Dir Wind Speed Gust Speed Precip Events Conditions
12:16 AM 19.4 °F - 15.8 °F 86% 30.29 in 10.0 mi Calm Calm - N/A   Clear
12:37 AM 19.4 °F - 15.8 °F 86% 30.29 in 10.0 mi Calm Calm - N/A   Clear
12:56 AM 17.6 °F - 14.0 °F 86% 30.29 in 10.0 mi Calm Calm - N/A   Clear
1:16 AM 17.6 °F - 14.0 °F 86% 30.29 in 10.0 mi Calm Calm - N/A   Clear
1:37 AM 17.6 °F - 12.2 °F 79% 30.30 in 10.0 mi Calm Calm - N/A   Clear
1:56 AM 15.8 °F - 12.2 °F 86% 30.30 in 10.0 mi Calm Calm - N/A   Clear
2:16 AM 15.8 °F - 12.2 °F 86% 30.30 in 10.0 mi Calm Calm - N/A   Clear
2:37 AM 14.0 °F - 12.2 °F 93% 30.30 in 10.0 mi Calm Calm - N/A   Clear
2:56 AM 14.0 °F - 10.4 °F 86% 30.29 in 10.0 mi Calm Calm - N/A   Clear
3:16 AM 12.2 °F - 10.4 °F 92% 30.29 in 10.0 mi Calm Calm - N/A   Clear
3:37 AM 12.2 °F - 10.4 °F 92% 30.29 in 10.0 mi Calm Calm - N/A   Clear
3:56 AM 12.2 °F - 8.6 °F 85% 30.29 in 10.0 mi Calm Calm - N/A   Clear
4:16 AM 12.2 °F - 8.6 °F 85% 30.29 in 10.0 mi Calm Calm - N/A   Clear
4:37 AM 12.2 °F - 8.6 °F 85% 30.29 in 10.0 mi Calm Calm - N/A   Clear
4:56 AM 10.4 °F - 8.6 °F 92% 30.29 in 10.0 mi Calm Calm - N/A   Clear
5:16 AM 10.4 °F - 8.6 °F 92% 30.29 in 10.0 mi Calm Calm - N/A   Clear
5:37 AM 10.4 °F - 6.8 °F 85% 30.29 in 10.0 mi Calm Calm - N/A   Clear
5:57 AM 8.6 °F - 6.8 °F 92% 30.29 in 10.0 mi Calm Calm - N/A   Clear
6:16 AM 8.6 °F - 6.8 °F 92% 30.30 in 10.0 mi Calm Calm - N/A   Clear
6:37 AM 8.6 °F - 6.8 °F 92% 30.30 in 10.0 mi Calm Calm - N/A   Clear
6:57 AM 6.8 °F - 5.0 °F 92% 30.30 in 10.0 mi Calm Calm - N/A   Clear
7:16 AM 8.6 °F - 5.0 °F 85% 30.31 in 10.0 mi Calm Calm - N/A   Clear
7:37 AM 8.6 °F - 5.0 °F 85% 30.31 in 10.0 mi Calm Calm - N/A   Clear
7:56 AM 8.6 °F - 6.8 °F 92% 30.31 in 10.0 mi Calm Calm - N/A   Clear
8:17 AM 12.2 °F - 8.6 °F 85% 30.30 in 10.0 mi Calm Calm - N/A   Clear
8:36 AM 17.6 °F - 10.4 °F 73% 30.30 in 10.0 mi Calm Calm - N/A   Clear
8:57 AM 21.2 °F - 12.2 °F 68% 30.30 in 10.0 mi Calm Calm - N/A   Clear
9:16 AM 24.8 °F - 14.0 °F 64% 30.30 in 10.0 mi Calm Calm - N/A   Clear
9:36 AM 28.4 °F - 15.8 °F 59% 30.30 in 10.0 mi Calm Calm - N/A   Clear
9:57 AM 30.2 °F - 15.8 °F 55% 30.30 in 10.0 mi Calm Calm - N/A   Clear
10:16 AM 33.8 °F - 15.8 °F 48% 30.30 in 10.0 mi Calm Calm - N/A   Clear
10:36 AM 35.6 °F - 15.8 °F 44% 30.30 in 10.0 mi Calm Calm - N/A   Clear
10:57 AM 37.4 °F - 15.8 °F 41% 30.30 in 10.0 mi Calm Calm - N/A   Clear
11:16 AM 39.2 °F - 15.8 °F 39% 30.30 in 10.0 mi Calm Calm - N/A   Clear
11:36 AM 39.2 °F - 14.0 °F 36% 30.30 in 10.0 mi Calm Calm - N/A   Clear
11:57 AM 41.0 °F - 15.8 °F 36% 30.29 in 10.0 mi Calm Calm - N/A   Clear
12:16 PM 41.0 °F - 14.0 °F 33% 30.29 in 10.0 mi Calm Calm - N/A   Clear
12:36 PM 41.0 °F - 14.0 °F 33% 30.29 in 10.0 mi Calm Calm - N/A   Clear
12:57 PM 42.8 °F 40.1 °F 14.0 °F 31% 30.29 in 10.0 mi West 4.6 mph - N/A   Clear
1:16 PM 42.8 °F - 12.2 °F 29% 30.28 in 10.0 mi Calm Calm - N/A   Clear
1:36 PM 42.8 °F - 15.8 °F 34% 30.27 in 10.0 mi Calm Calm - N/A   Clear
1:57 PM 42.8 °F 40.1 °F 14.0 °F 31% 30.27 in 10.0 mi NW 4.6 mph - N/A   Clear
2:16 PM 42.8 °F - 12.2 °F 29% 30.26 in 10.0 mi Calm Calm - N/A   Clear
2:36 PM 44.6 °F 42.2 °F 14.0 °F 29% 30.26 in 10.0 mi West 4.6 mph - N/A   Clear
2:57 PM 44.6 °F - 12.2 °F 27% 30.25 in 10.0 mi Calm Calm - N/A   Clear
3:16 PM 44.6 °F 43.1 °F 12.2 °F 27% 30.25 in 10.0 mi NW 3.5 mph - N/A   Clear
3:37 PM 44.6 °F 41.4 °F 14.0 °F 29% 30.24 in 10.0 mi WNW 5.8 mph - N/A   Clear
3:57 PM 44.6 °F 40.2 °F 14.0 °F 29% 30.24 in 10.0 mi West 8.1 mph - N/A   Clear
4:16 PM 44.6 °F 40.2 °F 14.0 °F 29% 30.24 in 10.0 mi WNW 8.1 mph - N/A   Clear
4:37 PM 44.6 °F 41.4 °F 12.2 °F 27% 30.24 in 10.0 mi NW 5.8 mph - N/A   Clear
4:57 PM 44.6 °F - 12.2 °F 27% 30.23 in 10.0 mi Calm Calm - N/A   Clear
5:16 PM 44.6 °F - 12.2 °F 27% 30.23 in 10.0 mi Calm Calm - N/A   Clear
5:37 PM 44.6 °F - 12.2 °F 27% 30.23 in 10.0 mi Calm Calm - N/A   Clear
5:57 PM 44.6 °F - 12.2 °F 27% 30.23 in 10.0 mi Calm Calm - N/A   Clear
6:16 PM 44.6 °F 43.1 °F 14.0 °F 29% 30.23 in 10.0 mi WNW 3.5 mph - N/A   Clear
6:37 PM 44.6 °F - 12.2 °F 27% 30.23 in 10.0 mi Calm Calm - N/A   Clear
6:57 PM 44.6 °F - 12.2 °F 27% 30.22 in 10.0 mi Calm Calm - N/A   Clear
7:16 PM 44.6 °F - 12.2 °F 27% 30.23 in 10.0 mi Calm Calm - N/A   Clear
7:37 PM 37.4 °F - 12.2 °F 36% 30.23 in 10.0 mi Calm Calm - N/A   Clear
7:57 PM 35.6 °F - 17.6 °F 48% 30.23 in 10.0 mi Calm Calm - N/A   Clear
8:16 PM 32.0 °F - 19.4 °F 60% 30.23 in 10.0 mi Calm Calm - N/A   Clear
8:37 PM 30.2 °F - 19.4 °F 64% 30.24 in 10.0 mi Calm Calm - N/A   Clear
8:57 PM 28.4 °F - 17.6 °F 64% 30.24 in 10.0 mi Calm Calm - N/A   Clear
9:16 PM 28.4 °F - 19.4 °F 69% 30.24 in 10.0 mi Calm Calm - N/A   Clear
9:37 PM 26.6 °F - 19.4 °F 74% 30.24 in 10.0 mi Calm Calm - N/A   Clear
9:56 PM 26.6 °F - 19.4 °F 74% 30.24 in 10.0 mi Calm Calm - N/A   Clear
10:17 PM 26.6 °F - 19.4 °F 74% 30.24 in 10.0 mi Calm Calm - N/A   Clear
10:36 PM 24.8 °F - 19.4 °F 80% 30.24 in 10.0 mi Calm Calm - N/A   Clear
10:56 PM 24.8 °F - 19.4 °F 80% 30.24 in 10.0 mi Calm Calm - N/A   Clear
11:17 PM 24.8 °F - 17.6 °F 74% 30.24 in 10.0 mi Calm Calm - N/A   Clear
11:37 PM 23.0 °F - 19.4 °F 86% 30.24 in 10.0 mi Calm Calm - N/A   Clear
11:56 PM 21.2 °F - 17.6 °F 86% 30.24 in 10.0 mi Calm Calm - N/A   Clear